This is the latest recevied weather packets stored in our database for station/object KE8GJZ-1. If no packets are shown the sender has not sent any weather packets the latest 10 day(s).
| Time | Temp. | Humidity | Pressure | Rain* | Wind** | Luminosity | Snow |
|---|---|---|---|---|---|---|---|
| 1778192351 | 12.78° C | 43% | 1009.4 hPa | 0 mm | - | 114 W/m² | - |
| 1778192047 | 12.78° C | 41% | 1009.5 hPa | 0 mm | - | 49 W/m² | - |
| 1778191743 | 12.78° C | 41% | 1009.4 hPa | 0 mm | - | 52 W/m² | - |
| 1778191441 | 12.78° C | 42% | 1009.5 hPa | 0 mm | - | 65 W/m² | - |
| 1778191137 | 12.78° C | 42% | 1009.5 hPa | 0 mm | - | 106 W/m² | - |
| 1778190834 | 12.78° C | 40% | 1009.4 hPa | 0 mm | - | 111 W/m² | - |
| 1778190531 | 12.78° C | 41% | 1009.4 hPa | 0 mm | - | 103 W/m² | - |
| 1778190229 | 12.78° C | 42% | 1009.5 hPa | 0 mm | - | 93 W/m² | - |
| 1778189925 | 12.78° C | 41% | 1009.6 hPa | 0 mm | - | 109 W/m² | - |
| 1778189622 | 12.22° C | 42% | 1009.4 hPa | 0 mm | - | 105 W/m² | - |
| 1778189318 | 12.22° C | 41% | 1009.6 hPa | 0 mm | - | 115 W/m² | - |
| 1778189014 | 12.78° C | 41% | 1009.5 hPa | 0 mm | - | 81 W/m² | - |
| 1778188711 | 12.78° C | 40% | 1009.5 hPa | 0 mm | - | 111 W/m² | - |
| 1778188408 | 13.33° C | 39% | 1009.2 hPa | 0 mm | - | 131 W/m² | - |
| 1778188105 | 12.78° C | 41% | 1009.5 hPa | 0 mm | - | 156 W/m² | - |
| 1778187802 | 12.78° C | 40% | 1009.6 hPa | 0 mm | - | 255 W/m² | - |
| 1778187498 | 13.33° C | 40% | 1009.4 hPa | 0 mm | - | 81 W/m² | - |
| 1778187195 | 13.33° C | 42% | 1009.5 hPa | 0 mm | - | 317 W/m² | - |
| 1778186891 | 13.33° C | 38% | 1009.6 hPa | 0 mm | - | 202 W/m² | - |
| 1778186589 | 13.33° C | 39% | 1009.8 hPa | 0 mm | - | 339 W/m² | - |
| 1778186287 | 13.33° C | 38% | 1009.8 hPa | 0 mm | - | 103 W/m² | - |
| 1778185984 | 13.33° C | 39% | 1009.7 hPa | 0 mm | - | 322 W/m² | - |
| 1778185680 | 13.89° C | 37% | 1009.9 hPa | 0 mm | - | 638 W/m² | - |
| 1778185376 | 13.89° C | 38% | 1009.5 hPa | 0 mm | - | 669 W/m² | - |
| 1778185071 | 12.78° C | 40% | 1009.7 hPa | 0 mm | - | 212 W/m² | - |
* Rain latest hour (hover to see other rain measurements)
** Current wind speed in m/s (hover to see current wind gust speed)